CW5532 Weather Reports


Display with metric or nautical units.
time (UTC)temp
F
wind
direction
speed
MPH
gust
MPH
rain 1hr
in
rain 24hr
in
rain mn
in
humidity
%
barometer
mb
20260901233734 65 175 0.0 0.0 0.00 0.00 0.00 80 1017.9
20260901230735 65 175 0.0 0.0 0.00 0.00 0.00 79 1017.7
20260901230234 66 175 0.0 0.0 0.00 0.00 0.00 79 1017.6
20260901223234 66 175 0.0 0.0 0.00 0.00 0.00 79 1017.4
20260901220234 67 175 0.0 0.0 0.00 0.00 0.00 79 1017.1
20260901213234 68 175 0.0 0.0 0.00 0.00 0.00 78 1017.0
20260901203234 70 175 0.0 0.0 0.00 0.00 0.00 77 1016.6
20260901193234 74 175 0.0 0.0 0.00 0.00 0.00 74 1016.0
20260901180234 79 166 0.0 3.0 0.00 0.00 0.00 67 1015.8
20260901173733 80 171 0.0 2.0 0.00 0.00 0.00 65 1015.9
20260901173233 80 149 0.0 9.0 0.00 0.00 0.00 64 1016.0
20260901170733 81 175 0.0 3.0 0.00 0.00 0.00 64 1016.0
20260901163733 82 206 1.0 5.0 0.00 0.00 0.00 62 1015.9
20260901163233 83 157 1.0 12.0 0.00 0.00 0.00 61 1015.9
20260901160233 85 181 2.0 7.0 0.00 0.00 0.00 57 1015.9
20260901153233 86 129 2.0 13.0 0.00 0.00 0.00 55 1015.8
20260901150733 84 201 1.0 6.0 0.00 0.00 0.00 57 1016.0
20260901143733 87 218 1.0 8.0 0.00 0.00 0.00 52 1015.9
20260901140733 86 217 5.0 10.0 0.00 0.00 0.00 54 1016.2
20260901133733 84 117 1.0 5.0 0.00 0.00 0.00 57 1016.3
20260901130733 85 216 2.0 9.0 0.00 0.00 0.00 55 1016.8
20260901123733 85 117 4.0 9.0 0.00 0.00 0.00 53 1016.9
20260901120733 86 139 1.0 10.0 0.00 0.00 0.00 53 1017.1
20260901113733 85 196 3.0 12.0 0.00 0.00 0.00 54 1017.2
20260901113233 85 158 8.0 17.0 0.00 0.00 0.00 54 1017.1
20260901103233 84 145 1.0 13.0 0.00 0.00 0.00 56 1017.4
20260901100732 82 92 1.0 7.0 0.00 0.00 0.00 58 1017.7
20260901090733 81 85 4.0 7.0 0.00 0.00 0.00 62 1017.4
20260901083732 80 92 0.0 1.0 0.00 0.00 0.00 65 1017.5
20260901080233 79 111 0.0 0.0 0.00 0.00 0.00 68 1017.3
20260901073232 77 173 0.0 0.0 0.00 0.00 0.00 71 1017.7
20260901070732 73 229 0.0 0.0 0.00 0.00 0.00 77 1017.9
20260901070232 72 229 0.0 3.0 0.00 0.00 0.00 77 1017.9
20260901063731 68 253 0.0 0.0 0.00 0.00 0.00 80 1018.2
20260901053231 65 238 0.0 0.0 0.00 0.00 0.00 80 1017.9
20260901050732 65 238 0.0 0.0 0.00 0.00 0.00 80 1017.9
20260901043731 65 238 0.0 0.0 0.00 0.00 0.00 80 1017.7
20260901040731 67 238 0.0 0.0 0.00 0.00 0.00 80 1017.6
20260901033732 68 238 0.0 0.0 0.00 0.00 0.00 79 1017.5
20260901033232 68 238 0.0 0.0 0.00 0.00 0.00 79 1017.5
20260901030732 70 238 0.0 0.0 0.00 0.00 0.00 78 1017.4
20260901023232 71 238 0.0 0.0 0.00 0.00 0.00 78 1017.4
20260901020731 72 238 0.0 0.0 0.00 0.00 0.00 78 1017.8
20260901020231 72 235 0.0 0.0 0.00 0.00 0.00 78 1017.9
20260901013231 71 138 0.0 0.0 0.00 0.00 0.00 79 1018.0
20260901010232 71 136 0.0 0.0 0.00 0.00 0.00 78 1018.0
20260901003731 72 136 0.0 0.0 0.00 0.00 0.00 78 1018.0
20260901000732 71 136 0.0 0.0 0.00 0.00 0.00 78 1018.1
20260901000233 71 136 0.0 0.0 0.00 0.00 0.00 78 1018.2